Temp
10 10 10 10 10 11 11 11 11 12 11 11 12 12 12 12 13 13 14 14 14 15 16 16 16 16 17 16 17 15 13 13 15 15 15 15 14 15 15 15 14 15 14 15 17
10 10 10 10 10 10 10 11 11 12 12 12 11 11 12 13 13 14 14 14 14 14 15 15 14 14 13 15 15 14 12 14 15 15 14 14 14 13 14 12 14 13 15 17 17
10 9 9 9 10 10 9 10 10 11 11 11 11 11 12 13 13 13 13 14 14 15 15 15 14 14 14 15 15 14 12 14 14 15 14 14 13 14 14 13 13 13 14 14 15
9 9 9 9 9 9 9 9 10 10 10 10 11 12 13 13 14 13 14 14 14 15 15 14 13 13 13 14 14 13 13 14 14 14 13 12 13 13 13 13 13 13 13 13 13
9 10 9 9 10 11 10 9 10 10 11 10 12 13 13 12 12 13 14 14 14 15 14 14 13 13 13 13 13 13 13 13 12 12 12 12 12 12 12 13 13 13 13 12 12
9 10 11 10 11 12 12 11 11 11 11 11 13 13 13 11 13 14 14 14 14 14 14 14 13 13 13 13 13 12 12 11 12 12 13 13 12 13 13 13 13 13 11 11 11
9 11 11 11 12 12 12 12 12 12 12 13 13 13 11 11 13 14 14 14 14 14 13 13 13 13 12 12 12 12 11 11 12 14 13 13 12 13 14 12 12 11 12 12 11
9 10 11 12 12 12 13 13 12 13 13 13 13 14 11 13 14 14 14 14 14 14 14 14 14 13 12 12 11 11 11 11 13 13 14 15 10 13 13 12 12 12 9 9 12
10 10 11 11 12 12 13 13 13 13 13 14 14 13 12 14 14 14 14 14 14 14 14 14 13 12 11 10 8 10 8 11 11 13 13 13 10 12 12 12 11 10 9 11 10
11 10 11 11 12 13 13 13 13 14 14 14 14 13 13 13 13 13 14 14 13 14 12 12 9 9 8 8 9 11 9 10 9 12 12 11 10 11 11 12 10 9 9 10 10
11 11 11 11 11 13 13 13 11 12 12 12 12 13 13 13 13 13 14 13 13 12 11 11 9 10 10 9 11 12 11 9 9 11 11 10 10 11 13 11 10 8 8 10 11
11 11 11 10 11 12 12 7 7 8 11 12 13 13 13 13 13 13 13 12 12 11 12 10 9 11 12 13 13 12 10 9 9 12 11 10 10 12 12 11 10 9 9 11 11
11 11 11 11 10 10 8 7 7 8 10 13 14 14 13 13 13 12 13 12 12 11 12 10 12 13 13 13 12 11 10 9 10 10 10 10 8 9 11 12 10 10 10 11 10
11 11 11 11 10 9 7 7 8 8 7 13 13 13 13 13 13 14 13 13 12 12 11 11 12 13 13 12 12 10 12 11 10 8 7 9 5 8 10 10 11 10 9 10 10
10 11 10 10 9 8 7 7 7 8 12 14 13 13 13 13 13 13 13 12 11 12 11 11 12 12 12 12 12 10 11 10 10 8 8 8 4 6 9 11 10 9 9 10 9
10 10 10 9 8 7 7 7 8 9 11 13 13 13 12 12 13 12 12 12 12 11 10 10 11 12 11 12 12 11 10 8 6 6 1 6 7 6 9 9 9 10 10 9 7
10 10 9 8 8 7 7 7 9 10 13 13 13 13 13 12 13 12 11 10 10 8 8 9 11 11 12 11 11 9 6 2 3 1 3 7 7 7 9 10 9 10 9 7 6
10 10 9 8 8 8 8 7 10 11 12 13 13 13 12 13 11 12 11 9 10 10 5 5 8 11 12 11 10 9 7 3 5 2 5 8 6 7 9 9 10 10 8 7 6
10 9 8 8 8 8 6 7 9 10 12 12 12 12 12 12 10 10 10 9 11 9 8 3 8 9 11 11 10 9 6 7 5 5 1 4 6 8 8 8 8 8 7 6 6
10 8 8 8 8 7 5 9 11 12 11 11 12 12 11 11 10 8 8 10 10 10 8 7 4 8 9 10 10 9 8 5 -1 1 3 5 5 8 8 7 7 7 6 6 6
9 5 7 7 8 4 6 8 11 11 11 10 10 11 11 10 7 7 7 10 10 8 7 5 4 6 8 8 7 6 7 4 2 2 2 3 6 6 8 8 7 7 6 6 7
7 5 7 7 5 6 6 9 11 10 10 10 9 10 9 9 6 6 8 8 10 8 8 6 1 1 5 7 8 8 4 2 3 1 2 3 6 9 8 8 8 8 7 6 7
4 6 6 7 5 5 6 10 10 9 9 8 9 9 9 9 5 6 8 9 8 8 6 7 2 -0 4 4 5 4 5 1 -1 -1 4 4 6 8 8 9 8 7 6 7 6
4 7 5 3 5 6 6 7 8 9 9 9 9 9 8 7 7 5 7 9 8 8 10 8 3 2 4 3 -1 2 1 4 2 1 6 5 6 7 8 8 8 7 7 6 4
5 6 8 7 5 4 4 5 8 8 8 8 6 7 7 2 6 6 6 7 8 9 8 6 3 2 4 5 4 3 3 3 1 5 4 6 6 6 7 7 7 6 6 5 5
6 6 3 3 6 6 6 5 8 8 7 6 6 7 6 4 6 5 5 5 5 5 2 1 5 4 4 5 5 5 5 5 4 4 4 4 5 7 6 4 5 5 5 5 5
6 6 6 6 4 5 5 7 8 8 8 8 7 6 6 6 7 7 6 5 6 3 2 1 2 2 3 5 5 4 5 5 5 4 3 3 5 5 5 5 4 3 3 4 5
Height
808 805 801 797 794 791 788 785 783 781 780 780 778 778 777 776 776 776 777 779 777 776 775 774 773 773 773 774 773 776 796 799 787 787 786 784 787 782 781 782 780 777 777 771 765
807 803 799 796 793 790 787 784 782 781 779 778 777 776 776 776 776 777 780 778 777 777 776 776 776 776 779 778 779 784 798 791 783 785 788 787 787 786 784 784 779 777 770 766 763
806 802 798 795 792 789 786 783 781 779 778 777 776 775 775 776 777 781 781 780 779 778 777 777 778 779 781 781 783 786 793 787 784 784 786 786 786 784 784 785 780 779 773 767 763
805 801 797 794 790 787 784 781 779 778 776 775 774 774 775 776 782 782 782 781 780 779 779 780 781 783 786 786 785 789 786 786 785 784 786 787 784 785 783 779 773 772 768 765 762
804 800 796 792 788 786 782 779 778 776 775 774 773 774 776 781 785 783 783 782 781 780 781 782 785 786 788 788 787 789 788 787 787 785 784 784 783 784 779 772 769 768 766 766 762
803 799 795 791 787 784 781 779 777 776 775 775 775 774 776 786 784 784 783 783 782 782 781 783 786 786 788 789 791 791 790 790 786 783 782 781 779 778 770 767 766 766 766 763 762
802 798 794 790 787 783 781 779 777 776 776 776 776 776 779 787 785 784 784 784 783 783 784 785 785 787 790 792 791 791 794 789 784 779 779 777 779 775 766 766 766 767 764 764 762
801 797 793 790 787 783 780 779 777 777 778 777 777 777 786 785 785 785 785 785 785 784 785 785 785 787 790 791 793 794 796 799 782 780 774 774 788 768 763 766 766 765 768 766 759
801 797 793 789 786 782 780 779 778 778 778 778 778 778 787 785 785 785 785 785 785 785 785 786 786 790 792 800 811 801 815 798 793 780 780 778 785 765 762 763 765 764 768 762 757
800 797 793 789 785 781 778 779 779 778 778 778 779 784 786 786 785 785 785 785 785 786 787 788 794 800 803 810 816 798 808 800 802 784 780 783 779 767 763 760 762 764 766 759 757
800 796 792 788 785 781 777 779 783 782 780 785 785 784 784 785 785 785 784 785 785 787 792 791 802 802 798 800 795 791 797 804 796 782 783 781 776 763 753 756 760 764 764 757 754
799 795 791 789 786 783 779 783 789 791 788 784 783 783 783 784 785 785 785 787 787 792 790 797 802 790 788 786 787 790 797 802 791 778 781 779 773 753 753 755 754 758 759 753 754
799 794 790 787 786 785 785 788 789 789 790 786 784 784 785 785 784 784 785 786 787 790 789 797 785 780 783 785 787 790 795 795 793 785 782 778 780 765 753 748 751 753 752 753 755
797 794 790 785 788 789 790 790 789 790 805 789 786 785 785 784 785 782 783 787 787 789 789 791 781 779 782 785 785 793 783 784 788 795 807 787 815 777 757 756 752 753 758 756 756
795 792 789 786 787 789 793 791 789 790 799 787 785 783 783 786 783 784 783 786 789 789 795 791 783 781 784 783 781 789 781 787 785 794 796 795 820 787 764 751 753 759 758 756 756
794 791 788 789 788 790 791 791 791 799 808 786 783 783 786 784 783 784 785 786 787 790 792 792 783 782 784 779 781 783 789 792 800 805 850 802 797 789 770 765 761 758 757 756 756
791 789 787 788 789 789 790 793 801 801 781 783 781 782 783 784 783 785 788 792 794 807 804 795 785 780 779 782 785 793 811 844 837 851 834 794 792 776 764 758 760 758 759 758 756
789 787 787 788 788 788 790 798 804 786 780 778 779 781 784 782 787 786 787 796 791 795 825 824 805 783 781 784 788 794 807 847 836 854 813 788 792 775 757 757 756 756 759 759 755
785 785 785 787 787 788 794 811 795 791 780 781 781 782 782 784 793 790 791 795 787 792 808 838 803 787 782 783 789 798 813 805 822 821 847 804 785 763 757 756 754 755 755 755 751
781 784 784 785 785 787 800 791 783 780 783 784 781 779 783 787 793 803 798 787 787 789 796 809 830 795 791 786 787 792 797 822 862 860 835 798 791 763 755 758 756 753 756 752 748
778 786 783 783 786 791 801 792 781 781 783 787 787 784 785 787 803 806 801 789 786 794 799 810 823 809 797 795 797 805 805 819 833 838 842 819 777 759 755 752 756 752 750 748 741
776 787 782 782 796 796 793 779 776 781 783 786 788 788 792 790 804 807 796 792 786 791 798 804 832 841 810 794 793 793 815 822 827 840 827 821 759 746 749 749 749 745 743 740 736
776 777 779 781 795 797 789 778 778 781 783 787 788 789 790 792 812 802 793 785 787 791 801 801 832 853 813 811 801 807 805 822 835 836 806 807 765 745 743 742 742 743 741 735 733
773 774 779 783 782 781 786 784 782 779 780 782 785 786 791 796 795 804 794 786 788 789 787 792 817 823 814 816 830 819 822 803 815 826 774 774 758 749 746 742 740 738 735 732 731
767 763 759 773 777 783 784 782 777 779 782 784 791 788 792 817 800 798 794 790 787 785 788 796 810 813 802 794 800 802 804 801 808 784 791 747 761 750 745 743 739 736 732 729 727
759 758 764 768 764 772 775 780 770 770 778 787 786 780 789 798 786 795 797 796 796 794 803 809 797 800 794 790 788 784 776 776 775 776 774 767 756 741 742 744 740 736 731 726 724
746 747 747 754 767 767 767 762 761 766 770 768 773 784 787 779 779 781 785 788 787 798 806 811 811 814 796 786 786 781 757 758 759 762 765 770 748 743 744 743 739 737 732 727 725
Wind_Speed
14 14 15 16 15 15 14 12 9 8 7 6 5 6 7 3 5 6 3 2 1 1 4 6 4 11 5 3 1 2 3 2 3 2 4 6 6 1 4 2 4 1 4 9 27
14 15 16 16 15 15 12 11 9 6 6 5 6 7 3 6 15 13 8 5 5 4 5 5 5 7 3 3 3 3 3 6 2 2 2 3 3 4 6 8 4 7 12 23 27
14 15 16 16 15 15 15 12 8 8 8 7 7 4 3 5 3 4 9 8 8 5 9 6 6 3 3 2 3 1 4 3 2 2 2 3 5 3 1 4 7 9 10 10 16
16 17 17 17 15 15 15 13 10 8 8 6 3 4 7 2 3 0 7 9 7 6 8 5 5 3 2 1 2 1 3 2 5 5 5 5 4 5 4 9 8 10 10 8 10
16 17 18 18 16 16 15 13 8 6 7 7 4 8 4 5 3 3 5 7 7 7 3 2 4 2 1 2 4 0 3 5 7 9 7 4 9 6 7 12 10 9 8 8 8
17 18 19 19 15 16 13 10 8 7 7 8 9 4 3 5 1 4 4 8 8 8 2 4 2 2 1 1 1 2 4 7 6 7 5 3 7 2 7 7 9 8 7 7 9
18 20 20 19 16 15 10 9 7 7 9 10 7 8 8 4 1 1 3 5 6 7 3 5 3 4 1 2 3 3 5 6 3 3 5 5 5 7 8 6 7 7 2 1 3
18 20 20 17 17 13 8 7 7 7 7 6 5 6 3 1 3 3 3 4 5 5 5 4 4 2 2 1 5 2 2 4 4 6 5 4 8 7 9 4 9 4 6 7 2
19 20 19 16 16 13 5 4 7 5 3 5 4 4 2 2 1 3 4 3 1 2 3 3 3 2 3 3 4 3 1 3 7 5 4 5 10 11 10 5 8 7 6 2 4
20 19 19 16 15 15 5 2 2 3 2 2 2 4 1 2 1 2 3 2 2 0 3 3 4 3 3 4 1 2 3 4 6 5 7 10 15 11 9 5 9 5 6 2 4
20 18 18 15 13 17 4 3 5 4 8 2 2 4 2 1 1 1 0 1 2 4 2 1 4 3 6 7 4 2 4 6 6 10 5 6 11 16 16 9 6 7 7 3 1
20 18 18 15 8 16 9 5 3 0 3 4 2 3 2 2 1 2 1 2 1 2 1 3 5 7 5 5 3 2 5 7 7 3 7 8 16 20 12 6 6 9 7 4 1
19 18 18 14 4 8 17 7 3 2 3 0 1 1 1 1 0 3 3 0 2 2 1 4 5 2 5 2 3 2 5 4 6 5 4 8 8 6 8 2 4 5 4 3 3
17 18 16 10 2 2 4 4 2 2 4 1 1 1 1 1 1 3 4 2 2 2 5 4 4 3 2 3 1 4 3 3 6 7 3 6 5 8 10 6 3 6 3 4 4
15 17 13 8 2 3 3 3 4 2 3 2 2 1 1 1 1 2 1 3 2 2 4 5 2 1 2 4 2 6 3 5 4 3 3 4 1 7 5 4 6 5 2 1 5
13 14 10 3 3 3 4 2 2 5 3 1 2 1 1 2 1 2 2 3 1 2 3 7 4 3 6 2 1 4 4 5 3 3 2 5 2 5 3 4 3 1 4 5 7
11 10 7 3 1 4 0 2 4 5 2 4 2 3 1 2 2 4 2 1 1 4 4 5 3 3 2 2 3 7 7 4 6 4 5 4 4 7 3 2 6 3 5 7 7
9 8 3 1 2 2 1 4 3 3 4 2 1 1 3 1 1 2 1 2 3 3 2 2 6 1 1 2 1 2 4 4 4 3 5 6 6 5 7 4 5 1 5 7 8
6 2 1 1 3 0 4 3 6 5 2 1 1 2 2 1 3 3 2 3 2 5 6 2 5 4 2 1 5 2 0 2 1 2 2 4 6 8 7 3 5 6 5 7 8
3 2 2 2 2 2 4 4 4 2 3 1 3 2 3 3 0 1 2 3 4 2 3 3 5 1 4 2 1 4 5 2 3 3 5 5 5 9 5 6 8 10 8 9 8
5 2 3 1 1 4 3 5 3 2 2 3 4 2 2 2 4 4 4 3 3 3 5 4 4 5 2 4 5 2 1 3 3 4 4 5 5 6 5 6 7 11 9 8 10
5 1 4 3 3 1 3 5 4 4 1 1 2 3 4 4 3 3 5 5 4 6 5 3 4 3 10 3 4 2 6 5 4 5 3 2 13 11 9 4 11 14 11 10 9
4 3 3 3 3 3 3 1 3 4 4 4 4 4 3 4 1 6 4 2 7 6 6 5 0 3 7 5 4 2 4 4 3 2 11 6 8 2 16 22 17 11 11 13 11
3 3 0 2 1 5 5 4 4 2 3 3 3 3 3 3 4 3 3 2 6 6 9 7 5 7 7 6 4 1 4 6 5 4 19 17 27 23 20 20 17 16 14 11 8
2 5 4 4 5 4 3 6 6 6 3 5 1 7 7 4 3 5 5 3 3 6 4 7 5 6 11 13 9 11 14 14 13 20 14 31 24 25 23 18 15 10 11 11 8
4 4 2 3 4 7 5 7 9 4 7 5 6 7 8 7 9 8 5 2 6 2 5 2 5 2 5 12 15 19 22 20 21 21 17 23 27 23 13 6 7 10 10 9 7
5 0 4 5 5 6 6 8 11 8 7 5 11 5 8 15 7 4 5 5 6 7 5 4 3 3 5 3 8 13 20 18 7 6 8 9 10 2 3 6 6 8 7 5 3
Wind_Direction
357 358 358 358 0 3 2 358 359 349 336 327 319 320 327 338 93 107 46 345 74 298 351 352 55 6 7 352 121 80 64 234 245 64 302 3 21 16 255 267 296 258 231 261 308
359 1 2 0 359 358 358 0 356 340 340 326 318 322 319 119 91 64 51 59 38 47 43 33 17 8 18 8 14 91 143 219 114 122 317 305 358 302 348 342 308 324 309 313 319
359 360 1 1 357 354 352 350 344 342 332 323 321 325 148 153 133 50 30 29 29 74 68 62 46 43 51 39 10 40 207 353 317 317 40 290 313 328 322 305 257 278 281 285 293
358 359 358 356 356 352 351 348 344 343 342 355 358 112 125 120 83 189 34 31 40 74 61 42 29 48 65 359 351 355 291 317 295 343 329 315 296 300 221 241 248 264 263 281 290
356 359 357 355 357 358 356 356 359 6 7 11 103 114 116 52 46 98 32 35 43 42 55 70 40 20 42 347 7 207 306 324 312 301 277 262 256 229 248 261 274 274 302 326 334
356 1 0 358 5 1 7 18 26 26 34 77 92 68 83 81 99 6 47 59 42 41 21 61 95 241 67 350 141 326 285 285 287 274 251 237 268 113 260 258 300 348 358 39 44
355 1 3 3 6 5 14 17 37 61 84 92 71 80 63 152 16 1 71 57 48 49 86 51 58 79 11 351 348 349 331 320 230 274 255 178 285 224 258 309 311 345 35 159 247
354 359 3 4 4 5 20 41 61 95 100 70 55 81 91 157 65 68 90 94 82 60 74 54 48 91 97 316 9 30 42 349 286 350 308 71 273 269 290 331 310 278 268 246 63
355 357 1 3 3 1 7 69 84 104 99 32 50 90 75 158 126 50 62 107 102 90 71 64 51 77 39 62 21 22 259 261 313 299 257 48 278 264 303 307 291 237 248 270 21
356 356 359 3 6 2 355 155 104 34 24 9 346 59 286 182 142 121 52 117 69 0 21 45 45 53 36 67 226 284 304 275 266 277 309 297 270 277 280 291 286 217 247 47 28
353 357 358 2 9 7 66 124 28 3 41 88 279 95 94 122 151 205 155 55 47 61 60 128 55 278 238 204 216 224 247 260 264 281 307 266 286 290 294 294 284 203 224 182 15
348 354 354 356 5 19 51 73 84 235 82 336 103 89 121 143 104 211 180 74 97 289 57 31 239 239 214 185 214 253 278 276 285 257 319 294 291 281 293 255 217 185 205 184 35
343 350 350 353 6 27 70 81 95 118 90 351 310 118 207 113 234 215 143 138 257 294 234 180 241 308 195 215 286 264 245 263 262 312 262 350 302 328 296 269 145 198 209 111 43
341 347 350 359 109 33 54 13 173 172 86 289 250 260 211 197 39 149 198 128 335 284 332 239 277 162 183 241 212 300 220 269 310 357 313 67 285 310 304 334 222 238 28 52 2
338 346 356 19 43 65 342 335 153 158 51 226 206 169 304 239 148 234 131 70 221 268 66 262 278 269 299 232 148 246 324 289 270 262 360 345 80 265 297 343 248 24 129 336 286
330 347 0 348 47 43 344 135 158 45 255 229 153 240 279 196 249 105 39 34 202 311 226 249 277 229 214 145 178 308 341 330 42 107 25 226 90 274 296 319 28 97 218 276 293
319 343 358 348 100 355 82 61 25 117 173 191 219 176 247 225 242 170 190 331 167 16 346 321 287 300 106 74 13 50 42 339 355 5 230 221 322 251 293 141 168 234 272 275 278
301 328 334 72 358 8 114 54 86 219 209 77 129 223 222 66 26 319 278 287 237 121 78 84 331 345 126 152 161 35 134 145 267 266 269 289 246 252 177 259 131 320 305 316 307
287 307 210 158 346 37 80 62 200 214 180 118 14 134 164 155 132 355 210 219 240 165 168 99 263 322 33 58 118 191 209 188 273 269 19 245 288 296 205 354 343 351 347 307 292
202 180 197 174 333 125 82 234 185 156 126 113 175 159 198 208 199 50 235 223 156 99 117 170 327 313 303 353 269 156 158 27 10 328 289 262 245 232 301 325 327 350 312 292 282
152 72 164 161 137 51 159 212 163 131 132 154 204 200 185 215 163 211 232 286 131 104 85 128 129 285 347 193 191 58 204 53 132 160 214 299 245 203 218 291 325 321 283 277 305
136 112 152 155 63 299 188 189 155 160 124 120 115 192 204 192 205 237 232 214 135 146 157 181 149 246 239 287 293 166 216 164 154 260 239 264 277 277 269 267 302 307 291 288 299
151 157 135 160 161 209 278 225 176 136 185 170 211 202 187 212 358 205 221 255 159 152 166 170 212 347 328 2 359 157 197 164 117 78 223 249 260 282 319 318 307 299 292 294 308
114 152 123 67 232 159 161 207 203 213 168 165 194 139 138 230 233 245 235 245 197 181 169 160 187 182 213 207 143 205 246 218 173 220 280 242 277 287 290 294 306 305 298 291 271
179 213 176 179 228 187 135 165 158 186 190 176 284 208 171 193 226 233 227 266 235 218 234 172 235 209 244 260 247 240 244 236 233 251 247 282 278 282 284 296 296 291 293 294 249
158 159 15 172 125 132 192 218 187 172 154 230 212 195 182 183 194 187 175 179 229 4 170 330 261 261 261 243 244 258 257 252 244 247 254 261 272 273 284 304 295 293 295 282 256
181 88 122 162 152 141 199 191 201 145 227 212 209 152 203 231 219 225 216 203 211 170 186 154 161 15 278 348 307 280 251 240 222 228 206 246 261 317 306 301 302 315 326 336 328